Погода в Плейку

Вьетнам     13°59′05″N   108°00′18″E
темп.,
°C
ветер,
м/с
пор.,
м/с
влажн.,
%
обл.,
%
осадки,
мм/ч
давл.,
гПа
погр.,
м
17 мая, вт
вт1701:00+20вюв1195100 0.2 101111
04:00+20сз0097100 0.4 101112
07:00+22с119291 1.2 1012160
10:00+21св3798100 6.8 1012232
13:00+21ссв2496100 8.0 1011174
16:00+21ссв1393100 0.6 1009157
19:00+20св119495 0.6 101113
22:00+20св2296100 0.0 101356
18 мая, ср
ср1801:00+19св119684 0.0 101123
04:00+19св119593 0.2 101120
07:00+21св1190100 0.2 101343
10:00+27юв116489 0.0 1012806
13:00+27ю226598 0.4 1010841
16:00+27ююз227351 1.6 1009866
19:00+22ююв1192100 3.5 101113
22:00+21вюв119360 0.5 101313
19 мая, чт
чт1901:00+21зюз119691 0.9 101226
04:00+20зюз1399100 2.8 1011157
07:00+21з1598100 12.1 1013271
10:00+23зсз2489100 0.1 1013458
13:00+28зсз3463100 0.1 10101260
16:00+27з236659 0.3 10081105
19:00+21зюз119594 0.3 101126
22:00+21сз119774 0.3 101212
20 мая, пт
пт2001:00+20зсз119876 0.3 101113
04:00+20сз019890 0.0 101014
07:00+22зсз1292100 0.0 1012192
10:00+24зсз238287 0.0 1011557
13:00+25зюз3585100 2.6 1009771
16:00+25з3581100 1.4 1007660
19:00+21з1296100 4.8 100947
22:00+21зсз1296100 1.3 101042
21 мая, сб
сб2101:00+21з1398100 2.1 1009119
04:00+21зсз1299100 4.9 100886
07:00+21зюз1398100 8.1 1010212
10:00+21з2498100 2.1 1010272
13:00+21зюз1496100 2.3 1008263
16:00+25зюз3581100 0.4 1005703
19:00+22зюз1497100 0.6 1007155
22:00+21зюз119684 0.0 100956